This is the latest recevied weather packets stored in our database for station/object CE3MXM-12. If no packets are shown the sender has not sent any weather packets the latest 10 day(s).
| Time | Temp. | Humidity | Pressure | Rain* | Wind** | Luminosity | Snow |
|---|---|---|---|---|---|---|---|
| 1777753125 | 25° C | 28% | 1014.4 hPa | - | - | - | - |
| 1777752825 | 24.44° C | 28% | 1014.5 hPa | - | - | - | - |
| 1777752525 | 25° C | 28% | 1014.4 hPa | - | - | - | - |
| 1777752225 | 25° C | 28% | 1014.5 hPa | - | - | - | - |
| 1777751924 | 25° C | 27% | 1014.5 hPa | - | - | - | - |
| 1777751625 | 25.56° C | 26% | 1014.2 hPa | - | - | - | - |
| 1777751325 | 25° C | 25% | 1014.4 hPa | - | - | - | - |
| 1777751024 | 25° C | 26% | 1014.4 hPa | - | - | - | - |
| 1777750724 | 25° C | 26% | 1014.3 hPa | - | - | - | - |
| 1777750424 | 25.56° C | 25% | 1014.3 hPa | - | - | - | - |
| 1777750124 | 25.56° C | 24% | 1014.3 hPa | - | - | - | - |
| 1777749824 | 25° C | 23% | 1014.3 hPa | - | - | - | - |
| 1777749524 | 25° C | 23% | 1014.3 hPa | - | - | - | - |
| 1777749224 | 25° C | 23% | 1014.2 hPa | - | - | - | - |
| 1777748924 | 25.56° C | 22% | 1014.2 hPa | - | - | - | - |
| 1777748624 | 25.56° C | 20% | 1014.3 hPa | - | - | - | - |
| 1777748323 | 25.56° C | 20% | 1014.5 hPa | - | - | - | - |
| 1777748024 | 25° C | 21% | 1014.4 hPa | - | - | - | - |
| 1777747723 | 25° C | 24% | 1014.3 hPa | - | - | - | - |
| 1777747423 | 25° C | 26% | 1014.3 hPa | - | - | - | - |
| 1777747123 | 24.44° C | 27% | 1014.2 hPa | - | - | - | - |
| 1777746823 | 24.44° C | 29% | 1014.2 hPa | - | - | - | - |
| 1777746523 | 24.44° C | 29% | 1014.5 hPa | - | - | - | - |
| 1777746223 | 24.44° C | 30% | 1014.3 hPa | - | - | - | - |
| 1777745923 | 25° C | 32% | 1014.2 hPa | - | - | - | - |
* Rain since midnight (hover to see other rain measurements)
** Current wind speed in m/s (hover to see current wind gust speed)